Home > Weather > Madaba > Past weeks

Flag for Jordan Past Weather in Madaba, Jordan — Yesterday and Last 2 Weeks

Now
91 °F

Clear.


Feels Like: 91 °F
Forecast: 67 / 88 °F
Wind: 18 mph from Northwest

Location: Queen Alia Airport

Current Time: Jun 29, 2016 at 5:48:55 PM

Latest Report: Jun 29, 2016 at 5:00 PM


Visibility: 4 mi

Pressure: 29.86 "Hg (27.35 "Hg at 788m altitude)

Humidity: 36%

Dew Point: 61 °F

Location of MadabaLocation

Past Weather in Madaba — Graph

°F

Madaba Temperature Yesterday

Maximum temperature yesterday: 84 °F (at 3:00 PM)
Minimum temperature yesterday: 68 °F (at 4:00 AM)
Average temperature yesterday: 76 °F

High & Low Weather Summary for the Past Weeks

 TemperatureHumidityPressure
High99 °F (Jun 14, 4:00 PM)94% (Jun 29, 6:00 AM)29.95 "Hg (Jun 29, 6:00 AM)
Low57 °F (Jun 17, 6:00 AM)10% (Jun 15, 12:00 PM)29.77 "Hg (Jun 24, 5:00 PM)
Average81 °F36%29.87 "Hg
* Reported Jun 14 4:00 PM — Jun 29 4:00 PM, Madaba, Weather by CustomWeather, © 2016

Note: Actual official high and low records may vary slightly from our data, if they occured in-between our weather recording intervals... More about our weather records

Advertising

Madaba Weather History for the Previous 24 Hours

Scroll right to see more
 ConditionsComfort  
Time TempWeatherWind HumidityBarometerVisibility
4:00 PM
Wed, Jun 29
91 °FClear.16 mph36%29.86 "Hg4 mi
3:00 PM91 °FClear.14 mph36%29.86 "Hg4 mi
2:00 PM88 °FClear.14 mph38%29.86 "Hg4 mi
1:00 PM86 °FClear.16 mph43%29.86 "Hg4 mi
12:00 PM84 °FClear.14 mph48%29.86 "Hg4 mi
11:00 AM81 °FClear.12 mph54%29.86 "Hg4 mi
10:00 AM79 °FClear.9 mph58%29.89 "Hg4 mi
9:00 AM75 °FScattered clouds.12 mph69%29.89 "Hg4 mi
8:00 AM73 °FPartly sunny.9 mph74%29.86 "Hg4 mi
7:00 AM66 °FFog.5 mph88%29.86 "Hg3 mi
6:00 AM64 °FFog.7 mph94%29.86 "Hg3 mi
5:00 AM64 °FPassing clouds.7 mph88%29.83 "HgN/A
4:00 AM66 °FClear.7 mph88%29.83 "Hg10 mi
3:00 AM64 °FClear.3 mph88%29.83 "Hg10 mi
2:00 AM66 °FClear.5 mph88%29.83 "Hg10 mi
1:00 AM68 °FClear.5 mph83%29.86 "Hg10 mi
12:00 AM70 °FClear.5 mph83%29.86 "Hg10 mi
11:00 PM
Tue, Jun 28
72 °FClear.7 mph73%29.86 "Hg10 mi
10:00 PM73 °FPassing clouds.12 mph65%29.83 "HgN/A
9:00 PM75 °FPassing clouds.12 mph57%29.83 "Hg5 mi
8:00 PM77 °FPassing clouds.16 mph54%29.80 "Hg5 mi
7:00 PM79 °FPassing clouds.18 mph51%29.80 "Hg5 mi
6:00 PM81 °FPassing clouds.16 mph48%29.77 "Hg5 mi
5:00 PM82 °FPassing clouds.16 mph42%29.77 "Hg5 mi
Weather by CustomWeather, © 2016

See weather overviewHow to use our weather pages